Melbourne, FL

4:27 PM EST on February 10, 2016 (GMT -0500)
Melbourne International

Weather History for KMLB - April, 2014

Change the Weather History Date:

Friday, April 11, 2014

  Actual Average Record
Temperature  
Mean Temperature 70 °F 70 °F  
Max Temperature 79 °F 80 °F 93 °F (1963)
Min Temperature 61 °F 59 °F 43 °F (1996)
Degree Days  
Heating Degree Days 0 1  
Month to date heating degree days 3 11  
Since 1 July heating degree days 358 571  
Cooling Degree Days 5 5  
Month to date cooling degree days 59 51  
Year to date cooling degree days 338 248  
Growing Degree Days 19 (Base 50)    
Moisture  
Dew Point 61 °F    
Average Humidity 70    
Maximum Humidity 84    
Minimum Humidity 56    
Precipitation  
Precipitation 0.03 in 0.08 in 2.92 in (1953)
Month to date precipitation 0.88 0.88  
Year to date precipitation 9.96 8.96  
Sea Level Pressure  
Sea Level Pressure 30.21 in    
Wind  
Wind Speed 11 mph (East)    
Max Wind Speed 20 mph    
Max Gust Speed 24 mph    
Visibility 10 miles    
Events Rain    
T = Trace of Precipitation, MM = Missing Value Source: NWS Daily Summary

Daily Weather History Graph

Daily Weather History Graph

Search for Another Location

Airport or City:

Trip Planner

Search our weather history database for the weather conditions in past years. The results will help you decide how hot, cold, wet, or windy it might be!

Date:

Astronomy

Apr. 11, 2014 Rise Set
Actual Time 7:01 AM EDT 7:45 PM EDT
Civil Twilight 6:37 AM EDT 8:09 PM EDT
Nautical Twilight 6:09 AM EDT 8:37 PM EDT
Astronomical Twilight 5:41 AM EDT 9:06 PM EDT
Moon 4:40 PM EDT (4/11) 4:38 AM EDT (4/11)
Length of Visible Light 13h 31m
Length of Day
12h 44m
Waxing Gibbous, 87% of the Moon is Illuminated
Apr 11
Waxing Gibbous
Apr 15
Full
Apr 22
Last Quarter
Apr 29
New
May 6
First Quarter

Hourly Weather History & Observations

Time (EDT) Temp. Dew Point Humidity Pressure Visibility Wind Dir Wind Speed Gust Speed Precip Events Conditions
12:53 AM 70.0 °F 55.0 °F 59% 30.27 in 10.0 mi East 5.8 mph - N/A   Clear
1:53 AM 69.1 °F 55.9 °F 63% 30.24 in 10.0 mi East 4.6 mph - N/A   Clear
2:53 AM 61.0 °F 55.9 °F 83% 30.22 in 10.0 mi Calm Calm - N/A   Mostly Cloudy
3:53 AM 71.1 °F 60.1 °F 68% 30.21 in 10.0 mi East 8.1 mph - 0.00 in   Scattered Clouds
4:53 AM 71.1 °F 60.1 °F 68% 30.19 in 10.0 mi East 11.5 mph - N/A   Partly Cloudy
5:53 AM 71.1 °F 60.1 °F 68% 30.20 in 10.0 mi East 13.8 mph - N/A   Partly Cloudy
6:53 AM 71.1 °F 60.1 °F 68% 30.21 in 10.0 mi East 9.2 mph - N/A   Scattered Clouds
7:53 AM 72.0 °F 61.0 °F 68% 30.23 in 10.0 mi East 12.7 mph - N/A   Overcast
8:53 AM 73.0 °F 62.1 °F 68% 30.24 in 10.0 mi East 12.7 mph - N/A   Mostly Cloudy
9:53 AM 73.0 °F 64.0 °F 73% 30.25 in 10.0 mi ESE 6.9 mph - 0.00 in   Overcast
10:53 AM 72.0 °F 64.9 °F 78% 30.27 in 6.0 mi East 9.2 mph - 0.03 in Rain Light Rain
11:51 AM 75.2 °F 64.4 °F 69% 30.26 in 10.0 mi East 15.0 mph - 0.00 in   Mostly Cloudy
11:53 AM 75.0 °F 64.0 °F 69% 30.26 in 10.0 mi East 16.1 mph - 0.00 in   Mostly Cloudy
12:53 PM 77.0 °F 62.1 °F 60% 30.23 in 10.0 mi East 12.7 mph - N/A   Scattered Clouds
1:53 PM 77.0 °F 62.1 °F 60% 30.22 in 10.0 mi ESE 16.1 mph 23.0 mph N/A   Scattered Clouds
2:53 PM 77.0 °F 61.0 °F 58% 30.20 in 10.0 mi ESE 17.3 mph - N/A   Overcast
3:53 PM 75.9 °F 61.0 °F 60% 30.18 in 10.0 mi East 17.3 mph - N/A   Mostly Cloudy
4:53 PM 75.0 °F 60.1 °F 60% 30.17 in 10.0 mi East 13.8 mph - N/A   Overcast
5:53 PM 73.9 °F 60.1 °F 62% 30.17 in 10.0 mi East 10.4 mph - 0.00 in Rain Light Rain
6:53 PM 73.9 °F 61.0 °F 64% 30.17 in 10.0 mi East 11.5 mph - 0.00 in   Overcast
7:53 PM 73.0 °F 60.1 °F 64% 30.17 in 10.0 mi East 12.7 mph - N/A   Overcast
8:53 PM 73.0 °F 61.0 °F 66% 30.18 in 10.0 mi East 10.4 mph - N/A   Overcast
9:53 PM 73.0 °F 63.0 °F 71% 30.19 in 10.0 mi ESE 9.2 mph - N/A   Overcast
10:53 PM 72.0 °F 64.0 °F 76% 30.19 in 10.0 mi SSE 6.9 mph - N/A   Clear
11:53 PM 72.0 °F 64.0 °F 76% 30.17 in 10.0 mi ESE 9.2 mph - N/A   Clear